Location: Bright Sky Observatory
(40.7821°N, 74.2425°W)
Time: 16:39:52
(UTC-04:00)

Amateur Radio Satellites - All Passes

Search period start: 26 May 2017 16:09
Search period end: 27 May 2017 16:09
Location: Bright Sky Observatory, 40.7821°N, 74.2425°W

Satellite Date Start Highest point End Downlink Frequencies (MHz)
Time Altitude Azimuth
BEESAT 26 May 16:14:50 16:19:38 78° 286° (WNW) 16:24:25 436.000
CUBESAT XI-V 26 May 16:44:55 16:48:36 23° 94° (E) 16:52:13 437.345
KKS-1 26 May 16:53:50 16:57:18 22° 95° (E) 17:00:45 437.445
NO-84 26 May 17:13:38 17:16:27 22° 234° (SW) 17:19:05 435.350 FM
ITUPSAT 1 26 May 17:19:55 17:23:21 20° 296° (WNW) 17:26:46 437.325
XW-2D 26 May 17:23:33 17:26:14 19° 68° (ENE) 17:28:56 145.860 - 145.880
STARS 26 May 17:25:15 17:28:32 20° 94° (E) 17:31:48 437.465
XW-2B 26 May 17:31:11 17:34:08 22° 69° (ENE) 17:37:07 145.730 - 145.750
MOZHAYETS 4 26 May 17:36:46 17:40:09 20° 294° (WNW) 17:43:32
CUTE-I 26 May 17:38:40 17:43:20 33° 67° (ENE) 17:48:01 437.470
NUDT-PHONESAT 26 May 17:43:11 17:46:08 23° 69° (ENE) 17:49:08 437.300
XW-2F 26 May 17:43:27 17:46:45 29° 71° (ENE) 17:50:05 145.980 - 146.000
XW-2C 26 May 17:44:19 17:47:42 31° 71° (ENE) 17:51:08 145.795 - 145.815
KAITUO 1B 26 May 17:51:12 17:54:29 29° 71° (ENE) 17:57:48 145.475/437.950
HO-68 26 May 17:55:30 18:00:29 21° 56° (NE) 18:05:29 435.675
DOVE 4 26 May 17:57:08 18:01:48 89° 71° (ENE) 18:06:12 437.250
PCSat 26 May 18:16:02 18:19:13 16° 104° (ESE) 18:22:25 145.827
CUTE 1.7 + AOD 2 26 May 18:20:58 18:23:04 13° 64° (ENE) 18:25:10 437.475
CUBESAT XI-V 26 May 18:21:48 18:26:02 35° 290° (WNW) 18:30:12 437.345
LilacSat-2 26 May 18:21:52 18:25:41 81° 260° (W) 18:29:34 437.200
KKS-1 26 May 18:29:56 18:33:54 33° 290° (WNW) 18:37:52 437.445
XW-2D 26 May 18:56:50 19:00:12 30° 264° (W) 19:03:37 145.860 - 145.880
CUBEBUG 2 26 May 18:57:51 19:00:21 16° 65° (ENE) 19:02:54 437.445
STARS 26 May 19:00:57 19:04:56 35° 290° (WNW) 19:08:56 437.465
XW-2B 26 May 19:05:02 19:08:12 25° 265° (W) 19:11:24 145.730 - 145.750
SEEDS 26 May 19:08:32 19:12:09 28° 70° (ENE) 19:15:46 437.485
UWE-3 26 May 19:08:59 19:10:50 13° 63° (ENE) 19:12:42 435.000/436.395/437.385
NUDT-PHONESAT 26 May 19:16:59 19:19:57 22° 265° (W) 19:22:56 437.300
XW-2F 26 May 19:18:14 19:20:55 18° 267° (W) 19:23:37 145.980 - 146.000
CUTE-I 26 May 19:18:40 19:23:20 31° 264° (W) 19:28:02 437.470
XW-2C 26 May 19:19:25 19:21:58 17° 267° (W) 19:24:33 145.795 - 145.815
KAITUO 1B 26 May 19:25:53 19:28:31 18° 267° (W) 19:31:10 145.475/437.950
HO-68 26 May 19:40:11 19:47:22 81° 254° (WSW) 19:54:37 435.675
Oscar 11 26 May 19:41:42 19:43:32 13° 63° (ENE) 19:45:23 .
STRAND 1 26 May 19:43:08 19:47:39 30° 96° (E) 19:52:09 437.568
XW-2A 26 May 19:46:34 19:49:53 69° 259° (WSW) 19:53:16 145.665 - 145.685
Tancredo 1 26 May 19:49:05 19:51:40 25° 135° (SE) 19:54:17 437.200
CUTE 1.7 + AOD 2 26 May 19:54:11 19:58:24 56° 260° (W) 20:02:39 437.475
PCSat 26 May 19:56:36 20:01:59 69° 301° (WNW) 20:07:25 145.827
AO-73 26 May 20:06:18 20:09:52 27° 69° (ENE) 20:13:31 145.935
AAUSAT CUBESAT 2 26 May 20:07:37 20:11:44 60° 74° (ENE) 20:15:52 437.432
ZACube-1 26 May 20:19:49 20:23:47 42° 72° (ENE) 20:27:52 437.345
ISS 26 May 20:20:09 20:23:10 34° 137° (SE) 20:26:12 437.550
DELFI C3 26 May 20:30:28 20:30:44 10° 63° (ENE) 20:31:01 145.870
CUBEBUG 2 26 May 20:32:38 20:36:36 43° 262° (W) 20:40:39 437.445
UWE-3 26 May 20:42:39 20:46:45 58° 260° (W) 20:50:59 435.000/436.395/437.385
SEEDS 26 May 20:44:18 20:47:47 24° 265° (W) 20:51:17 437.485
M-CUBED/EXP-1 PRIME 26 May 21:11:49 21:14:41 27° 102° (ESE) 21:17:30 437.505
Oscar 11 26 May 21:14:50 21:19:07 63° 259° (WSW) 21:23:27 .
STRAND 1 26 May 21:22:14 21:26:47 32° 292° (WNW) 21:31:19 437.568
Tancredo 1 26 May 21:24:30 21:27:21 34° 332° (NNW) 21:30:12 437.200
SO-50 26 May 21:30:54 21:33:32 15° 109° (ESE) 21:36:09 436.795
HO-68 26 May 21:32:58 21:36:06 13° 272° (W) 21:39:15 435.675
AO-73 26 May 21:42:34 21:46:03 25° 266° (W) 21:49:36 145.935
PCSat 26 May 21:43:55 21:46:25 13° 321° (NW) 21:48:56 145.827
AAUSAT CUBESAT 2 26 May 21:46:25 21:47:33 11° 270° (W) 21:48:42 437.432
ISS 26 May 21:56:41 21:59:41 31° 333° (NNW) 22:02:40 437.550
ZACube-1 26 May 21:57:42 22:00:17 16° 269° (W) 22:02:56 437.345
DELFI C3 26 May 22:00:58 22:04:56 67° 259° (W) 22:08:55 145.870
EO-88 26 May 22:02:56 22:06:36 89° 257° (WSW) 22:10:17 145.990 - 145.960
TIGRISAT 26 May 22:06:00 22:09:20 19° 93° (E) 22:12:40 435.000
UNISAT 6 26 May 22:36:55 22:41:20 44° 99° (E) 22:45:48 437.425
PRISM 26 May 22:42:25 22:46:27 61° 101° (E) 22:50:27 437.425
FO-29 26 May 22:43:09 22:49:32 56° 101° (E) 22:56:41 435.910
LO-87 26 May 22:46:07 22:49:23 35° 73° (ENE) 22:52:39 145.935 - 145.965
M-CUBED/EXP-1 PRIME 26 May 22:47:01 22:48:57 15° 299° (WNW) 22:50:51 437.505
Tancredo 1 26 May 23:02:23 23:03:48 12° 351° (N) 23:05:13 437.200
ESTCUBE 1 26 May 23:07:04 23:11:19 41° 71° (ENE) 23:15:36 437.505/2401.250
SO-50 26 May 23:08:59 23:13:31 59° 305° (NW) 23:18:02 436.795
ISS 26 May 23:35:16 23:36:58 13° 353° (N) 23:38:40 437.550
TIGRISAT 26 May 23:41:48 23:46:09 42° 288° (WNW) 23:50:31 435.000
NANOSAT C BR1 26 May 23:50:12 23:52:44 15° 92° (E) 23:55:17 145.865
POLYITAN 1 26 May 23:54:28 23:57:34 19° 94° (E) 00:00:39 437.675
SPROUT 26 May 23:55:15 23:59:04 33° 70° (ENE) 00:02:52 437.525
50 SAT 26 May 23:59:44 00:01:54 16° 67° (ENE) 00:04:04 437.505
DUCHIFAT 1 27 May 00:00:29 00:03:24 18° 93° (E) 00:06:19 145.980
VELOX 1 27 May 00:02:10 00:06:19 41° 71° (ENE) 00:10:28 145.980
QB50P2 27 May 00:02:45 00:06:20 26° 96° (E) 00:09:54 145.880/145.840
AIST 2D 27 May 00:07:41 00:11:13 57° 100° (E) 00:14:43 435.315
UNISAT 6 27 May 00:14:28 00:17:43 19° 294° (WNW) 00:21:00 437.425
PRISM 27 May 00:19:52 00:21:12 11° 298° (WNW) 00:22:33 437.425
LO-87 27 May 00:21:19 00:22:57 13° 268° (W) 00:24:36 145.935 - 145.965
FO-29 27 May 00:29:00 00:34:17 28° 295° (WNW) 00:40:03 435.910
UKube-1 27 May 00:29:56 00:33:07 21° 66° (ENE) 00:36:19 .
DX 1 27 May 00:37:12 00:41:09 35° 70° (ENE) 00:45:07 434.975-435.025
Tancredo 1 27 May 00:39:02 00:40:35 13° 11° (N) 00:42:08 437.200
EO-79 27 May 00:39:21 00:43:35 62° 101° (E) 00:47:48 145.935-145.965
ESTCUBE 1 27 May 00:45:06 00:48:17 19° 267° (W) 00:51:29 437.505/2401.250
YUBILEINY 27 May 00:47:46 00:55:43 42° 87° (E) 01:03:44 435.215
SO-50 27 May 00:54:12 00:54:55 10° 325° (NW) 00:55:39 436.795
ISS 27 May 01:12:24 01:14:30 16° 13° (NNE) 01:16:36 437.550
Oscar 19 27 May 01:17:08 01:20:04 15° 91° (E) 01:22:59 437.125/150
NANOSAT C BR1 27 May 01:24:36 01:28:39 44° 288° (WNW) 01:32:41 145.865
POLYITAN 1 27 May 01:29:31 01:33:26 36° 289° (WNW) 01:37:20 437.675
50 SAT 27 May 01:31:31 01:34:32 28° 263° (W) 01:37:34 437.505
SPROUT 27 May 01:31:53 01:35:01 20° 266° (W) 01:38:10 437.525
DUCHIFAT 1 27 May 01:35:16 01:39:11 37° 289° (WNW) 01:43:06 145.980
QB50P2 27 May 01:38:28 01:42:03 27° 291° (WNW) 01:45:38 145.880/145.840
VELOX 1 27 May 01:39:57 01:42:56 18° 267° (W) 01:45:55 145.980
BEESAT 27 May 01:45:57 01:48:16 14° 61° (ENE) 01:50:35 436.000
BUGSAT 1 27 May 01:52:01 01:56:11 80° 283° (WNW) 02:00:21 437.445
RS-15 27 May 01:52:50 02:04:19 54° 111° (ESE) 02:16:06 29.354- 29.394
UKube-1 27 May 02:04:58 02:08:55 35° 262° (W) 02:12:53 .
Tancredo 1 27 May 02:14:04 02:16:59 39° 30° (NNE) 02:19:54 437.200
DX 1 27 May 02:14:12 02:17:25 20° 266° (W) 02:20:39 434.975-435.025
EO-79 27 May 02:17:03 02:18:48 12° 297° (WNW) 02:20:34 145.935-145.965
Gurwin Techsat 1B 27 May 02:34:47 02:39:58 51° 100° (E) 02:45:08 435.225
YUBILEINY 27 May 02:44:19 02:52:27 43° 287° (WNW) 03:00:42 435.215
ITUPSAT 1 27 May 02:47:29 02:52:06 53° 72° (ENE) 02:56:47 437.325
ISS 27 May 02:48:20 02:51:34 54° 32° (NNE) 02:54:47 437.550
Oscar 19 27 May 02:54:42 02:59:48 63° 287° (WNW) 03:04:52 437.125/150
MOZHAYETS 4 27 May 03:00:19 03:04:33 38° 71° (ENE) 03:08:51
PCSat 27 May 03:02:38 03:05:58 16° 42° (NE) 03:09:17 145.827
BEESAT 27 May 03:20:42 03:25:26 70° 258° (WSW) 03:30:13 436.000
CUBESAT XI-V 27 May 03:47:58 03:51:37 23° 67° (ENE) 03:55:17 437.345
Tancredo 1 27 May 03:50:12 03:52:34 20° 227° (SW) 03:54:56 437.200
O/OREOS (USA 219) 27 May 03:50:22 03:54:45 45° 106° (ESE) 03:59:08 437.305
KKS-1 27 May 03:51:52 03:55:09 21° 66° (ENE) 03:58:26 437.445
ITAMSAT 1 27 May 03:57:02 04:01:59 41° 99° (E) 04:06:54 435.822/435.867
RS-15 27 May 04:05:10 04:16:58 52° 314° (NW) 04:29:00 29.354- 29.394
AO-7 27 May 04:10:29 04:18:35 51° 102° (ESE) 04:26:38 .
Gurwin Techsat 1B 27 May 04:15:37 04:19:31 21° 297° (WNW) 04:23:25 435.225
STARS 27 May 04:21:57 04:24:57 18° 65° (ENE) 04:27:57 437.465
ISS 27 May 04:25:36 04:27:46 17° 229° (SW) 04:29:56 437.550
ITUPSAT 1 27 May 04:27:19 04:30:15 16° 268° (W) 04:33:10 437.325
MOZHAYETS 4 27 May 04:38:23 04:41:49 21° 267° (W) 04:45:17
PCSat 27 May 04:44:41 04:50:09 89° 66° (ENE) 04:55:34 145.827
AO-85 27 May 04:46:54 04:51:05 73° 120° (ESE) 04:55:05 145.980
BEESAT 2 27 May 05:20:04 05:22:47 18° 111° (ESE) 05:25:32 435.950
CUBESAT XI-V 27 May 05:24:24 05:28:45 37° 263° (W) 05:33:08 437.345
KKS-1 27 May 05:27:22 05:31:28 36° 262° (W) 05:35:34 437.445
O/OREOS (USA 219) 27 May 05:31:04 05:34:23 19° 304° (NW) 05:37:42 437.305
ITAMSAT 1 27 May 05:37:01 05:41:11 25° 295° (WNW) 05:45:21 435.822/435.867
BEESAT 3 27 May 05:37:43 05:41:40 82° 124° (SE) 05:45:42 437.485
DOVE 4 27 May 05:56:30 05:59:44 21° 95° (E) 06:03:02 437.250
STARS 27 May 05:56:53 06:00:59 40° 261° (W) 06:05:07 437.465
CUTE-I 27 May 05:57:31 05:59:44 12° 89° (E) 06:01:57 437.470
LilacSat-2 27 May 05:57:33 05:58:40 11° 90° (E) 05:59:48 437.200
SO-50 27 May 06:01:04 06:03:56 16° 41° (NE) 06:06:47 436.795
AO-7 27 May 06:03:37 06:11:05 38° 300° (WNW) 06:18:35 .
RS-15 27 May 06:23:59 06:33:25 24° 346° (NNW) 06:42:50 29.354- 29.394
XW-2D 27 May 06:29:23 06:32:41 26° 96° (E) 06:35:58 145.860 - 145.880
AO-85 27 May 06:29:54 06:31:54 13° 318° (NW) 06:33:52 145.980
PCSat 27 May 06:30:57 06:32:42 12° 258° (WSW) 06:34:27 145.827
XW-2B 27 May 06:37:13 06:40:41 31° 97° (E) 06:44:08 145.730 - 145.750
NUDT-PHONESAT 27 May 06:46:52 06:50:17 32° 97° (E) 06:53:41 437.300
XW-2F 27 May 06:49:17 06:52:58 43° 99° (E) 06:56:37 145.980 - 146.000
XW-2C 27 May 06:50:42 06:54:27 48° 99° (E) 06:58:09 145.795 - 145.815
KAITUO 1B 27 May 06:55:59 06:59:38 42° 99° (E) 07:03:14 145.475/437.950
BEESAT 2 27 May 06:56:28 07:00:14 39° 308° (NW) 07:04:03 435.950
STRAND 1 27 May 06:58:38 07:03:24 42° 70° (ENE) 07:08:12 437.568
HO-68 27 May 07:09:35 07:14:34 20° 91° (E) 07:19:30 435.675
BEESAT 3 27 May 07:18:03 07:19:48 12° 320° (NW) 07:21:35 437.485
LilacSat-2 27 May 07:29:28 07:33:15 50° 286° (WNW) 07:36:59 437.200
DOVE 4 27 May 07:33:49 07:37:27 30° 290° (WNW) 07:41:11 437.250
CUTE-I 27 May 07:35:00 07:40:21 79° 285° (WNW) 07:45:42 437.470
CUTE 1.7 + AOD 2 27 May 07:39:41 07:43:11 24° 94° (E) 07:46:39 437.475
SO-50 27 May 07:40:23 07:44:53 73° 241° (WSW) 07:49:24 436.795
M-CUBED/EXP-1 PRIME 27 May 07:56:34 08:00:33 42° 68° (ENE) 08:04:17 437.505
XW-2D 27 May 08:03:47 08:06:43 21° 292° (WNW) 08:09:38 145.860 - 145.880
XW-2B 27 May 08:12:00 08:14:38 18° 293° (WNW) 08:17:15 145.730 - 145.750
NUDT-PHONESAT 27 May 08:21:26 08:23:56 17° 293° (WNW) 08:26:25 437.300
CUBEBUG 2 27 May 08:22:55 08:27:14 38° 98° (E) 08:31:35 437.445
XW-2F 27 May 08:24:47 08:26:42 14° 295° (WNW) 08:28:38 145.980 - 146.000
XW-2C 27 May 08:26:31 08:28:12 13° 295° (WNW) 08:29:53 145.795 - 145.815
SEEDS 27 May 08:27:20 08:31:29 54° 100° (E) 08:35:34 437.485
NO-84 27 May 08:28:22 08:32:39 54° 133° (SE) 08:36:52 435.350 FM
KAITUO 1B 27 May 08:31:20 08:33:15 13° 295° (WNW) 08:35:08 145.475/437.950
UWE-3 27 May 08:32:13 08:36:15 29° 96° (E) 08:40:17 435.000/436.395/437.385
STRAND 1 27 May 08:38:47 08:42:43 23° 266° (W) 08:46:43 437.568
XW-2A 27 May 08:41:05 08:44:29 62° 284° (WNW) 08:47:53 145.665 - 145.685
RS-15 27 May 08:41:48 08:51:46 27° 22° (NNE) 09:01:26 29.354- 29.394
HO-68 27 May 08:55:44 09:02:56 76° 289° (WNW) 09:10:06 435.675
FO-29 27 May 08:58:09 09:01:40 19° 61° (ENE) 09:05:16 435.910
Oscar 11 27 May 09:02:42 09:06:15 24° 94° (E) 09:09:45 .
TIGRISAT 27 May 09:05:18 09:07:51 16° 64° (ENE) 09:10:26 435.000
CUTE 1.7 + AOD 2 27 May 09:15:20 09:18:58 28° 291° (WNW) 09:22:34 437.475
CUTE-I 27 May 09:18:14 09:19:30 11° 303° (WNW) 09:20:45 437.470
AAUSAT CUBESAT 2 27 May 09:25:09 09:29:16 69° 284° (WNW) 09:33:21 437.432
AO-73 27 May 09:29:24 09:33:56 61° 101° (E) 09:38:27 145.935
PRISM 27 May 09:31:07 09:35:00 41° 72° (ENE) 09:38:53 437.425
M-CUBED/EXP-1 PRIME 27 May 09:32:26 09:35:03 16° 260° (W) 09:37:36 437.505
UNISAT 6 27 May 09:35:38 09:39:31 35° 70° (ENE) 09:43:29 437.425
DELFI C3 27 May 09:39:27 09:41:43 15° 92° (E) 09:43:59 145.870
ZACube-1 27 May 09:43:47 09:48:22 84° 281° (WNW) 09:52:57 437.345
CUBEBUG 2 27 May 10:00:05 10:03:36 22° 293° (WNW) 10:07:10 437.445
SEEDS 27 May 10:04:38 10:06:41 13° 296° (WNW) 10:08:43 437.485
NO-84 27 May 10:06:40 10:10:28 28° 329° (NNW) 10:14:10 435.350 FM
UWE-3 27 May 10:08:42 10:12:35 28° 291° (WNW) 10:16:31 435.000/436.395/437.385
Oscar 11 27 May 10:38:34 10:42:21 30° 291° (WNW) 10:46:07 .
TIGRISAT 27 May 10:40:01 10:44:07 47° 261° (W) 10:48:20 435.000
FO-29 27 May 10:41:18 10:46:20 52° 261° (W) 10:51:31 435.910
AIST 2D 27 May 10:42:19 10:44:56 20° 69° (ENE) 10:47:34 435.315
NANOSAT C BR1 27 May 10:43:19 10:44:48 12° 62° (ENE) 10:46:15 145.865
HO-68 27 May 10:45:41 10:49:28 15° 308° (NW) 10:53:14 435.675
POLYITAN 1 27 May 10:47:37 10:49:55 15° 64° (ENE) 10:52:14 437.675
DUCHIFAT 1 27 May 10:53:00 10:55:02 13° 64° (ENE) 10:57:04 145.980
RS-15 27 May 10:55:07 11:07:20 65° 51° (NE) 11:18:53 29.354- 29.394
QB50P2 27 May 10:55:32 10:58:32 19° 66° (ENE) 11:01:32 145.880/145.840
YUBILEINY 27 May 10:58:34 11:04:46 20° 63° (ENE) 11:10:56 435.215
EO-88 27 May 11:05:28 11:09:07 63° 285° (WNW) 11:12:45 145.990 - 145.960
AO-73 27 May 11:07:16 11:09:39 14° 296° (WNW) 11:12:00 145.935
PRISM 27 May 11:07:56 11:10:27 16° 267° (W) 11:12:58 437.425
DELFI C3 27 May 11:13:00 11:16:39 38° 288° (WNW) 11:20:17 145.870
UNISAT 6 27 May 11:13:14 11:16:20 19° 267° (W) 11:19:30 437.425
EO-79 27 May 11:31:16 11:35:13 42° 72° (ENE) 11:39:12 145.935-145.965
LO-87 27 May 11:46:14 11:49:40 46° 99° (E) 11:53:06 145.935 - 145.965
NO-84 27 May 11:47:30 11:49:12 12° 349° (N) 11:50:51 435.350 FM
AIST 2D 27 May 12:15:10 12:18:00 23° 265° (W) 12:20:52 435.315
NANOSAT C BR1 27 May 12:15:49 12:19:56 63° 258° (WSW) 12:24:07 145.865
Gurwin Techsat 1B 27 May 12:20:31 12:21:46 11° 57° (ENE) 12:23:02 435.225
POLYITAN 1 27 May 12:21:13 12:25:16 49° 260° (W) 12:29:22 437.675
DUCHIFAT 1 27 May 12:26:10 12:30:14 53° 260° (W) 12:34:20 145.980
QB50P2 27 May 12:30:12 12:34:03 35° 262° (W) 12:37:57 145.880/145.840
Oscar 19 27 May 12:33:17 12:37:19 23° 65° (ENE) 12:41:22 437.125/150
ESTCUBE 1 27 May 12:36:01 12:40:33 87° 283° (WNW) 12:45:02 437.505/2401.250
BUGSAT 1 27 May 12:41:08 12:45:06 65° 75° (ENE) 12:49:05 437.445
YUBILEINY 27 May 12:53:51 13:02:44 86° 265° (W) 13:11:35 435.215
50 SAT 27 May 12:55:10 12:57:17 15° 94° (E) 12:59:23 437.505
RS-15 27 May 13:08:28 13:19:06 39° 254° (WSW) 13:29:17 29.354- 29.394
EO-79 27 May 13:08:42 13:11:11 15° 268° (W) 13:13:41 145.935-145.965
SPROUT 27 May 13:16:14 13:20:30 68° 102° (ESE) 13:24:45 437.525
AO-85 27 May 13:17:51 13:21:50 54° 55° (NE) 13:26:00 145.980
AO-7 27 May 13:21:29 13:25:52 16° 47° (NE) 13:30:15 .
LO-87 27 May 13:21:43 13:22:41 11° 295° (WNW) 13:23:39 145.935 - 145.965
NO-84 27 May 13:26:37 13:28:19 12° 11° (N) 13:29:58 435.350 FM
VELOX 1 27 May 13:28:15 13:32:40 87° 103° (ESE) 13:37:02 145.980
BEESAT 2 27 May 13:37:42 13:39:48 14° 41° (NE) 13:41:53 435.950
UKube-1 27 May 13:51:49 13:55:48 36° 98° (E) 13:59:44 .
BEESAT 3 27 May 13:54:46 13:58:37 42° 53° (NE) 14:02:24 437.485
Gurwin Techsat 1B 27 May 13:55:31 14:00:49 80° 75° (ENE) 14:06:10 435.225
O/OREOS (USA 219) 27 May 14:00:29 14:05:01 84° 68° (ENE) 14:09:30 437.305
DX 1 27 May 14:01:02 14:05:22 69° 102° (ESE) 14:09:41 434.975-435.025
Oscar 19 27 May 14:11:23 14:16:21 44° 261° (W) 14:21:19 437.125/150
50 SAT 27 May 14:27:17 14:30:10 26° 289° (WNW) 14:33:03 437.505
ITUPSAT 1 27 May 14:49:48 14:52:12 14° 91° (E) 14:54:37 437.325
YUBILEINY 27 May 14:53:11 14:58:09 17° 284° (WNW) 15:03:07 435.215
SPROUT 27 May 14:54:25 14:55:49 11° 298° (WNW) 14:57:15 437.525
AO-85 27 May 14:59:41 15:01:49 14° 250° (WSW) 15:04:01 145.980
NO-84 27 May 15:03:26 15:06:57 33° 32° (NNE) 15:10:11 435.350 FM
AO-7 27 May 15:08:55 15:17:05 67° 68° (ENE) 15:25:19 .
BEESAT 2 27 May 15:13:59 15:18:03 75° 240° (WSW) 15:22:04 435.950
ITAMSAT 1 27 May 15:14:39 15:19:44 63° 73° (ENE) 15:24:52 435.822/435.867
BEESAT 27 May 15:21:16 15:25:28 30° 96° (E) 15:29:38 436.000
UKube-1 27 May 15:28:25 15:31:33 20° 294° (WNW) 15:34:43 .
BEESAT 3 27 May 15:33:15 15:35:51 17° 250° (WSW) 15:38:26 437.485
Gurwin Techsat 1B 27 May 15:39:16 15:41:21 12° 271° (W) 15:43:26 435.225
DX 1 27 May 15:39:28 15:40:58 12° 298° (WNW) 15:42:28 434.975-435.025
